TimeCST,TemperatureF,Dew PointF,Humidity,Sea Level PressureIn,VisibilityMPH,Wind Direction,Wind SpeedMPH,Gust SpeedMPH,PrecipitationIn,Events,Conditions,WindDirDegrees,DateUTC
12:51 AM,63.0,57.9,84,29.99,8.0,South,6.9,-,N/A,,Scattered Clouds,180,2012-12-03 06:51:00
1:51 AM,63.0,57.9,84,29.99,8.0,South,9.2,-,N/A,,Mostly Cloudy,180,2012-12-03 07:51:00
2:51 AM,63.0,57.9,84,29.99,9.0,South,10.4,-,N/A,,Mostly Cloudy,180,2012-12-03 08:51:00
3:51 AM,63.0,57.9,84,29.98,9.0,South,10.4,-,N/A,,Mostly Cloudy,180,2012-12-03 09:51:00
4:51 AM,63.0,57.9,84,29.97,9.0,South,8.1,-,N/A,,Scattered Clouds,180,2012-12-03 10:51:00
5:51 AM,63.0,57.9,84,29.97,9.0,South,10.4,-,N/A,,Scattered Clouds,170,2012-12-03 11:51:00
6:51 AM,63.0,57.9,84,29.96,8.0,South,12.7,-,N/A,,Mostly Cloudy,170,2012-12-03 12:51:00
7:51 AM,64.9,59.0,81,29.95,8.0,South,13.8,-,N/A,,Mostly Cloudy,170,2012-12-03 13:51:00
8:51 AM,66.9,59.0,76,29.95,9.0,South,16.1,23.0,N/A,,Mostly Cloudy,180,2012-12-03 14:51:00
9:51 AM,69.1,59.0,70,29.95,10.0,South,18.4,26.5,N/A,,Mostly Cloudy,170,2012-12-03 15:51:00
10:51 AM,72.0,59.0,64,29.94,10.0,South,13.8,-,N/A,,Mostly Cloudy,190,2012-12-03 16:51:00
11:51 AM,73.0,57.0,57,29.91,10.0,South,20.7,29.9,N/A,,Mostly Cloudy,190,2012-12-03 17:51:00
12:51 PM,73.0,55.0,53,29.88,10.0,South,23.0,32.2,N/A,,Scattered Clouds,190,2012-12-03 18:51:00
1:51 PM,73.9,55.0,52,29.85,10.0,South,21.9,29.9,N/A,,Scattered Clouds,180,2012-12-03 19:51:00
2:51 PM,73.0,54.0,51,29.85,10.0,South,20.7,31.1,N/A,,Scattered Clouds,180,2012-12-03 20:51:00
3:51 PM,72.0,55.0,55,29.86,10.0,South,17.3,24.2,N/A,,Scattered Clouds,180,2012-12-03 21:51:00
4:51 PM,70.0,54.0,57,29.88,10.0,South,11.5,-,N/A,,Scattered Clouds,180,2012-12-03 22:51:00
5:51 PM,70.0,54.0,57,29.92,7.0,South,10.4,19.6,N/A,,Mostly Cloudy,170,2012-12-03 23:51:00
6:51 PM,68.0,55.0,63,29.92,10.0,South,15.0,21.9,N/A,,Scattered Clouds,170,2012-12-04 00:51:00
7:51 PM,66.9,55.9,68,29.92,10.0,South,13.8,-,N/A,,Partly Cloudy,180,2012-12-04 01:51:00
8:51 PM,66.0,55.9,70,29.93,10.0,South,12.7,-,N/A,,Partly Cloudy,190,2012-12-04 02:51:00
9:51 PM,66.0,55.9,70,29.92,10.0,South,11.5,-,N/A,,Scattered Clouds,180,2012-12-04 03:51:00
10:51 PM,66.0,55.0,68,29.92,10.0,South,11.5,-,N/A,,Scattered Clouds,190,2012-12-04 04:51:00
11:51 PM,64.9,55.0,70,29.91,10.0,South,11.5,-,N/A,,Scattered Clouds,190,2012-12-04 05:51:00